Regional Weather Roundup
Issued by NWS

Home | Current Version | Previous Version | Graphics & Text | Print | Product List | Glossary Off
Versions: 1 2 3 4 5 6 7 8 9 10 11 12 13 14 15 16 17 18 19 20 21 22 23 24 25 26 27 28 29 30 31 32 33 34 35 36 37 38 39 40 41 42 43 44 45 46 47 48 49 50

000
ASUS43 KDTX 301110
RWRMI
MICHIGAN HOURLY REGIONAL WEATHER ROUNDUP
NATIONAL WEATHER SERVICE DETROIT/PONTIAC MI
700 AM EDT THU OCT 30 2014

NOTE: "FAIR" INDICATES FEW OR NO CLOUDS BELOW 12,000 FEET WITH NO
SIGNIFICANT WEATHER AND/OR OBSTRUCTION TO VISIBILITY.

MIZ047>049-052>055-059>063-066>070-074>076-081>083-301200-
SOUTHEAST LOWER MICHIGAN

CITY           SKY/WX    TMP DP  RH WIND       PRES   REMARKS
ADRIAN         CLEAR     32  30  92 CALM      30.14R
ALMA           CLOUDY    37  37  97 CALM      30.11S
ANN ARBOR      CLOUDY    30  27  88 W3        30.12S
BAD AXE        CLEAR     31  30  95 CALM      30.10S
CARO           MOCLDY    38  36  91 CALM      30.10S
DETROIT CITY   CLOUDY    44  32  62 N8        30.13R
DETROIT        MOCLDY    37  34  89 W6        30.13S WCI  32
FLINT          PTCLDY    33  30  88 S3        30.12S
GROSSE ILE     CLOUDY    39  36  87 W6        30.12R WCI  35
HILLSDALE      CLOUDY    34  34 100 CALM      30.12S
HOWELL         CLOUDY    36  35  96 CALM      30.11S

CITY           SKY/WX    TMP DP  RH WIND       PRES   REMARKS
JACKSON        PTCLDY    33  31  92 CALM      30.12S
LAMBERTVILLE   CLEAR     36  32  87 CALM      30.14S
LANSING        CLOUDY    39  36  89 CALM      30.12S
LAPEER         CLOUDY    40  34  78 CALM      30.11S
MASON          CLOUDY    37  36  94 CALM      30.12S
MONROE         CLEAR     34  34 100 NW3       30.12R
MT. CLEMENS    CLOUDY    42  33  71 NW8       30.10R
PONTIAC        CLOUDY    37  34  89 NW5       30.11S WCI  33
PORT HOPE        N/A     39  32  76 W5        30.07S
PORT HURON     MOCLDY    39  34  81 NW6       30.11S WCI  35
TRI CITIES     PTCLDY    35  32  88 SW5       30.12S WCI  31
TROY           CLOUDY    43  31  62 N6        30.13S
SAGINAW HB     CLEAR     34  34 100 CALM      30.11S
$$
MIZ043>046-050>051-056>058-064>065-071>073-077>080-301200-
SOUTHWEST LOWER MICHIGAN

CITY           SKY/WX    TMP DP  RH WIND       PRES   REMARKS
BATTLE CREEK   CLOUDY    43  37  79 S5        30.12F
BENTON HARBOR  CLOUDY    45  35  68 S5        30.12S
BIG RAPIDS     CLOUDY    36  36 100 S3        30.09S
COLDWATER      CLOUDY    43  41  92 CALM      30.12F
FREMONT        CLOUDY    41  38  89 CALM      30.09S
HOLLAND        CLOUDY    45  38  76 S6        30.11F
GRAND RAPIDS   CLOUDY    41  38  89 CALM      30.11S
IONIA          CLOUDY    40  37  88 SW3       30.11S
KALAMAZOO      CLOUDY    44  37  76 S5        30.12F
LUDINGTON      CLOUDY    41  38  90 W3        30.09S
MARSHALL       CLOUDY    39  37  93 CALM      30.11F
MOUNT PLEASANT CLOUDY    35  34  96 CALM      30.10R
MUSKEGON       CLOUDY    45  38  76 CALM      30.11R
SOUTH HAVEN    CLOUDY    45  41  86 CALM      30.11F
$$
MIZ016>042-301200-
NORTHERN LOWER MICHIGAN

CITY           SKY/WX    TMP DP  RH WIND       PRES   REMARKS
ALPENA         CLEAR     32  30  92 W5        30.08R WCI  27
BEAVER ISLAND  CLOUDY    38  37  96 CALM      30.07S
CADILLAC       CLOUDY    38  36  92 CALM      30.06S
CHARLEVOIX     CLOUDY    39  35  84 CALM      30.10R
FRANKFORT      MOCLDY    35  35  99 CALM      30.08S
GAYLORD        CLOUDY    34  33  96 CALM      30.06R
GRAYLING       CLOUDY    29  29  99 CALM      30.08S
HARBOR SPRINGS CLOUDY    36  34  92 CALM      30.07S
HOUGHTON LAKE  CLOUDY    35  34  96 CALM      30.08S
MANISTEE       CLOUDY    39  36  87 CALM      30.09R
OSCODA         PTCLDY    28  27  99 CALM      30.09S
PELLSTON       CLOUDY    33  32  96 CALM      30.07S
ROGERS CITY    MOCLDY    32  32 100 SW7       30.09R WCI  26
TRAVERSE CITY  CLOUDY    41  35  79 CALM      30.07S
$$
MIZ007>008-015-301200-
EASTERN UPPER MICHIGAN

CITY           SKY/WX    TMP DP  RH WIND       PRES   REMARKS
KINROSS        CLOUDY    34  32  93 SW3       30.05F
MACKINAC ISLAN CLOUDY    40  33  78 CALM      30.06S
NEWBERRY       CLOUDY    34  34  99 SW3       30.05R
S. S. MARIE    CLOUDY    35  32  88 CALM      30.04S
MUNISING         N/A     40  35  83 SW7       30.04S
$$
MIZ004>006-011>014-085-301200-
CENTRAL UPPER MICHIGAN

CITY           SKY/WX    TMP DP  RH WIND       PRES   REMARKS
MANISTIQUE     CLOUDY    35  35  98 CALM      30.06S
ESCANABA       CLOUDY    39  34  81 W3        30.07R
MENOMINEE      CLOUDY    39  34  81 CALM      30.06S
SAWYER-GWINN   CLOUDY    37  34  87 CALM      30.03S
$$
MIZ001>003-009>011-084-301200-
WESTERN UPPER MICHIGAN

CITY           SKY/WX    TMP DP  RH WIND       PRES   REMARKS
IRON MOUNTAIN  CLOUDY    39  33  79 CALM      30.03F
HOUGHTON       LGT RAIN  38  35  89 W9        30.01S WCI  31
COPPER HARBOR    N/A     40  37  89 SW5       30.02S
IRONWOOD       CLOUDY    37  34  87 W7        30.01F WCI  32
$$

ABBREVIATIONS USED IN REMARKS
   TC - TEMPERATURE IN CELSIUS
  WCI - WIND CHILL INDEX
   HX - HEAT INDEX
  VSB - VISIBILITY




USA.gov is the U.S. government's official web portal to all federal, state and local government web resources and services.